This demonstration page uses our WeatherBlox Daily Observations layout. Learn more.

40.92945, -100.16068

Hourly Observations for January 13, 2020

Temp ( °F °C ) Dew Point ( °F °C ) Humidity (%) Winds ( mph kmh ) Pressure ( in mb ) Visibility ( mi km ) Precip ( " mm )
12:15 am 00:15 Clear 27 -2.7 22 -5.4 82 82 S 7 11 30.09 1019 10 16.0934 0 0
12:35 am 00:35 Clear 27 -2.9 22 -5.3 84 84 S 6 9 30.09 1019 10 16.0934 0 0
12:55 am 00:55 Clear 27 -2.8 22 -5.5 82 82 S 5 7 30.08 1019 10 16.0934 0 0
1:15 am 01:15 Clear 28 -2.2 22 -5.5 78 78 S 5 7 30.07 1018 10 16.0934 0 0
1:35 am 01:35 Clear 28 -2 22 -5.4 78 78 Calm 30.07 1018 10 16.0934 0 0
1:55 am 01:55 Clear 28 -2.2 23 -5.2 80 80 SSE 5 7 30.07 1018 10 16.0934 0 0
2:15 am 02:15 Clear 28 -2 22 -5.3 78 78 SE 5 7 30.07 1018 10 16.0934 0 0
2:35 am 02:35 Clear 28 -2.1 23 -5.1 80 80 SE 6 9 30.07 1018 10 16.0934 0 0
2:55 am 02:55 Clear 28 -2.3 22 -5.3 80 80 E 5 7 30.07 1018 10 16.0934 0 0
3:15 am 03:15 Clear 27 -3 22 -5.6 82 82 ESE 5 7 30.08 1019 10 16.0934 0 0
3:35 am 03:35 Clear 25 -4 21 -6 86 86 E 5 7 30.09 1019 10 16.0934 0 0
3:55 am 03:55 Clear 23 -4.9 20 -6.4 89 89 E 6 9 30.1 1019 10 16.0934 0 0
4:15 am 04:15 Clear 22 -5.3 20 -6.8 89 89 E 5 7 30.08 1019 10 16.0934 0 0
4:35 am 04:35 Clear 22 -5.4 20 -6.7 91 91 E 8 13 30.07 1018 10 16.0934 0 0
4:55 am 04:55 Clear 22 -5.4 20 -6.8 90 90 E 7 11 30.07 1018 10 16.0934 0 0
5:15 am 05:15 Clear 23 -5.1 20 -6.6 89 89 ESE 7 11 30.07 1018 10 16.0934 0 0
5:35 am 05:35 Clear 23 -5 20 -6.5 89 89 ESE 6 9 30.07 1018 10 16.0934 0 0
5:55 am 05:55 Clear 23 -5.2 20 -6.7 89 89 ESE 7 11 30.07 1018 10 16.0934 0 0
6:15 am 06:15 Clear 23 -5.2 20 -6.7 89 89 ESE 8 13 30.06 1018 10 16.0934 0 0
6:35 am 06:35 Clear 22 -5.4 20 -6.9 89 89 ESE 8 13 30.05 1018 10 16.0934 0 0
6:55 am 06:55 Clear 22 -5.6 20 -6.8 91 91 ESE 10 17 30.05 1018 10 16.0934 0 0
7:15 am 07:15 Clear 21 -6 19 -7 93 93 SE 8 13 30.06 1018 10 16.0934 0 0
7:35 am 07:35 Clear 21 -6.2 19 -7.1 93 93 SE 7 11 30.07 1018 10 16.0934 0 0
7:55 am 07:55 Clear 21 -6.3 19 -7.2 93 93 ESE 5 7 30.06 1018 10 16.0934 0 0
8:15 am 08:15 Sunny 20 -6.5 19 -7.5 93 93 ESE 3 6 30.06 1018 10 16.0934 0 0
8:35 am 08:35 Sunny 20 -6.8 18 -7.7 93 93 ESE 6 9 30.07 1018 10 16.0934 0 0
8:55 am 08:55 Sunny 20 -6.5 19 -7.5 93 93 Calm 30.06 1018 10 16.0934 0 0
9:15 am 09:15 Sunny 20 -6.5 19 -7.4 93 93 ENE 3 6 30.07 1018 7 11.26538 0 0
9:35 am 09:35 Sunny 21 -6.1 19 -7.2 92 92 Calm 30.06 1018 10 16.0934 0 0
9:55 am 09:55 Sunny 22 -5.7 19 -7.1 90 90 Calm 30.06 1018 10 16.0934 0 0
10:15 am 10:15 Sunny 23 -5.2 20 -6.7 89 89 Calm 30.07 1018 10 16.0934 0 0
10:35 am 10:35 Sunny 23 -4.8 20 -6.4 89 89 Calm 30.07 1018 10 16.0934 0 0
10:55 am 10:55 Sunny 24 -4.3 21 -6 88 88 SE 3 6 30.05 1018 10 16.0934 0 0
11:15 am 11:15 Sunny 25 -3.8 22 -5.6 87 87 SSE 3 6 30.03 1017 10 16.0934 0 0
11:35 am 11:35 Sunny 26 -3.5 22 -5.4 87 87 ESE 3 6 30.02 1017 10 16.0934 0 0
11:55 am 11:55 Sunny 27 -3 23 -5.1 86 86 SE 5 7 30.01 1016 10 16.0934 0 0
12:15 pm 12:15 Sunny 28 -2.5 24 -4.6 86 86 Calm 29.99 1016 10 16.0934 0 0
12:35 pm 12:35 Sunny 29 -1.8 24 -4.2 84 84 Calm 29.97 1015 10 16.0934 0 0
12:55 pm 12:55 Sunny 30 -1.3 25 -4.1 81 81 Calm 29.96 1015 10 16.0934 0 0
1:15 pm 13:15 Sunny 31 -0.8 25 -3.9 80 80 Calm 29.95 1014 10 16.0934 0 0
1:35 pm 13:35 Sunny 32 -0.2 25 -3.8 77 77 Calm 29.93 1013 10 16.0934 0 0
1:55 pm 13:55 Sunny 32 0.1 26 -3.6 76 76 Calm 29.93 1013 10 16.0934 0 0
2:15 pm 14:15 Sunny 33 0.7 26 -3.5 74 74 Calm 29.91 1013 10 16.0934 0 0
2:35 pm 14:35 Sunny 33 0.7 26 -3.5 74 74 Calm 29.91 1013 10 16.0934 0 0
2:55 pm 14:55 Sunny 34 1 27 -2.8 76 76 NE 3 6 29.9 1012 10 16.0934 0 0
3:15 pm 15:15 Sunny 34 1 27 -2.7 77 77 ENE 3 6 29.9 1012 10 16.0934 0 0
3:35 pm 15:35 Sunny 35 1.6 28 -2.5 74 74 ENE 3 6 29.89 1012 10 16.0934 0 0
3:55 pm 15:55 Sunny 36 2.3 28 -2.5 71 71 Calm 29.9 1013 10 16.0934 0 0
4:15 pm 16:15 Sunny 37 2.7 27 -2.6 68 68 SSE 3 6 29.9 1013 10 16.0934 0 0
4:35 pm 16:35 Sunny 37 2.6 28 -2.4 70 70 S 5 7 29.92 1013 10 16.0934 0 0
4:55 pm 16:55 Sunny 36 2.1 28 -2.5 72 72 Calm 29.94 1014 10 16.0934 0 0
5:15 pm 17:15 Sunny 36 2 27 -3 70 70 SE 3 6 29.94 1014 10 16.0934 0 0
5:35 pm 17:35 Clear 33 0.8 27 -2.8 77 77 ESE 3 6 29.96 1015 10 16.0934 0 0
5:55 pm 17:55 Clear 32 -0.2 26 -3.1 81 81 Calm 29.98 1015 10 16.0934 0 0
6:15 pm 18:15 Clear 30 -1.3 27 -2.9 89 89 Calm 30.01 1016 10 16.0934 0 0
6:35 pm 18:35 Clear 29 -1.4 26 -3.4 86 86 Calm 30.01 1016 10 16.0934 0 0
6:55 pm 18:55 Clear 28 -2 25 -3.8 88 88 S 5 7 30.02 1016 10 16.0934 0 0
7:15 pm 19:15 Clear 28 -2.5 25 -3.9 90 90 S 6 9 30.02 1017 10 16.0934 0 0
7:35 pm 19:35 Clear 28 -2.4 25 -4 89 89 SSW 3 6 30.03 1017 10 16.0934 0 0
7:55 pm 19:55 Clear 27 -3 24 -4.2 92 92 Calm 30.05 1017 10 16.0934 0 0
8:15 pm 20:15 Clear 27 -3 24 -4.2 92 92 Calm 30.05 1017 10 16.0934 0 0
8:35 pm 20:35 Clear 25 -3.7 24 -4.7 93 93 Calm 30.05 1018 10 16.0934 0 0
8:55 pm 20:55 Clear 26 -3.6 24 -4.6 93 93 Calm 30.06 1018 10 16.0934 0 0
9:15 pm 21:15 Clear 25 -3.9 23 -5 92 92 Calm 30.08 1018 10 16.0934 0 0
9:35 pm 21:35 Clear 25 -4 24 -4.7 95 95 Calm 30.09 1019 10 16.0934 0 0
9:55 pm 21:55 Clear 25 -4.1 23 -4.9 94 94 N 5 7 30.09 1019 10 16.0934 0 0
10:15 pm 22:15 Clear 23 -4.8 22 -5.7 94 94 NNE 5 7 30.11 1019 10 16.0934 0 0
10:35 pm 22:35 Clear 24 -4.6 22 -5.6 93 93 Calm 30.1 1019 10 16.0934 0 0
10:55 pm 22:55 Clear 22 -5.4 21 -6.2 94 94 WNW 8 13 30.13 1020 10 16.0934 0 0
11:15 pm 23:15 Clear 23 -4.9 21 -5.9 93 93 W 7 11 30.14 1021 10 16.0934 0 0
11:35 pm 23:35 Clear 23 -5 21 -6 93 93 W 5 7 30.14 1021 10 16.0934 0 0
11:55 pm 23:55 Clear 22 -5.4 20 -6.5 92 92 Calm 30.14 1021 10 16.0934 0 0

Powered by AerisWeather